sat.trackr.live / text

‹ back to catalog

CARTOSAT-2A

NORAD 32783 · 2008-021A

PAYLOAD ACTIVE UNKNOWN

§ Identity

Operator
Country
IND
Launch date
2008-04-28
Launch site
SRILR
Launch vehicle
Mass (kg)
RCS (m²)
2.32

Purposes: earth_obs

External: N2YO · Heavens-Above · Gunter

§ Orbital elements

Epoch: 2026-09-20T03:36:09.393408Z

Period
97.34 min
Inclination
97.7543°
Eccentricity
0.0012178
Mean motion
14.79331437 rev/d
Perigee alt
622.9 km
Apogee alt
640.0 km
Semi-major
7,009.6 km
B*
4.1515e-5
RAAN
308.5757°
Arg perigee
155.9689°
Mean anomaly
204.2093°
Rev number
99,284

§ Raw data

CARTOSAT-2A1 32783U 08021A   26263.15010872  .00000259  00000+0  41515-4 0  99922 32783  97.7543 308.5757 0012178 155.9689 204.2093 14.79331437992841

JSON: /api/v1/satellites/32783 · /tle

For live sub-satellite position, see the globe view (requires WebGL).

§ Visibility from observer

Set your observer location to see the next 7 days of passes ≥ 10°. The values pass through the URL so the page stays shareable.

No JS? Fill the form by hand. The geolocation button needs JavaScript.

§ Radio — SatNOGS DB

ModeDescriptionDownlinkUplink
CW Beacon 2.246 GHz

1 transmitter · refreshed weekly from db.satnogs.org